Orbital Elements at Epoch 2459000.5 (2020-May-31.0) TDB
Reference: JPL 16 (heliocentric ecliptic J2000)
Element | Value | Uncertainty (1-sigma) | Units |
e | .0322138464262658 | 7.6419e-08 | |
a | 2.617060760427945 | 2.2751e-08 | au |
q | 2.532755167003312 | 1.9521e-07 | au |
i | 22.83625748012559 | 5.6836e-06 | deg |
node | 78.79755811568006 | 1.2287e-05 | deg |
peri | 3.086681294296687 | 8.5099e-05 | deg |
M | 143.2320124163846 | 8.6986e-05 | deg |
tp | 2458385.242766121302 (2018-Sep-23.74276612) | 0.00036968 | TDB |
period | 1546.390366648192 4.23 | 2.0165e-05 5.521e-08 | d yr |
n | .2328002086435016 | 3.0358e-09 | deg/d |
Q | 2.701366353852577 | 2.3484e-08 | au |
|
| | Orbit Determination Parameters
Additional Information
|